QPF
0.04 0.03 0.03 0.04 0.04 0.05 0.05 0.07 0.10 0.13 0.17 0.18 0.18 0.18 0.17 0.17 0.14 0.11 0.10 0.09 0.06 0.04 0.04 0.05 0.06 0.05 0.04 0.03 0.02 0.02 0.02 0.02 0.02 0.02 0.02 0.02 0.02 0.02 0.02 0.02 0.02 0.02 0.02
0.04 0.04 0.05 0.06 0.05 0.05 0.05 0.06 0.07 0.08 0.11 0.14 0.16 0.19 0.19 0.19 0.17 0.12 0.08 0.07 0.06 0.04 0.03 0.04 0.04 0.05 0.05 0.04 0.03 0.03 0.02 0.02 0.02 0.02 0.02 0.02 0.03 0.03 0.03 0.02 0.02 0.01 0.01
0.04 0.03 0.05 0.06 0.06 0.05 0.04 0.05 0.05 0.05 0.07 0.10 0.12 0.15 0.17 0.16 0.14 0.13 0.10 0.07 0.05 0.04 0.04 0.03 0.03 0.04 0.05 0.05 0.04 0.04 0.04 0.03 0.03 0.03 0.02 0.02 0.02 0.03 0.03 0.03 0.02 0.02 0.01
0.04 0.04 0.04 0.06 0.06 0.06 0.05 0.06 0.05 0.05 0.06 0.06 0.07 0.10 0.12 0.14 0.12 0.10 0.09 0.09 0.07 0.05 0.03 0.03 0.02 0.03 0.04 0.05 0.05 0.05 0.04 0.04 0.04 0.04 0.03 0.03 0.03 0.02 0.03 0.04 0.03 0.03 0.02
0.04 0.04 0.05 0.05 0.07 0.06 0.05 0.07 0.06 0.05 0.06 0.05 0.05 0.06 0.07 0.09 0.08 0.07 0.07 0.07 0.07 0.06 0.05 0.04 0.03 0.04 0.05 0.06 0.06 0.06 0.06 0.05 0.05 0.04 0.05 0.04 0.04 0.03 0.03 0.03 0.04 0.04 0.03
0.04 0.04 0.06 0.06 0.06 0.07 0.07 0.07 0.04 0.04 0.05 0.04 0.04 0.05 0.06 0.07 0.06 0.06 0.05 0.05 0.04 0.05 0.05 0.05 0.05 0.06 0.07 0.07 0.08 0.08 0.07 0.07 0.07 0.06 0.06 0.05 0.04 0.04 0.03 0.03 0.04 0.04 0.04
0.04 0.05 0.06 0.07 0.07 0.09 0.10 0.08 0.05 0.05 0.05 0.04 0.04 0.04 0.05 0.05 0.05 0.05 0.04 0.03 0.03 0.03 0.04 0.04 0.05 0.06 0.06 0.07 0.07 0.07 0.07 0.07 0.07 0.07 0.07 0.06 0.04 0.03 0.03 0.03 0.03 0.04 0.04
0.04 0.05 0.06 0.07 0.08 0.10 0.10 0.08 0.06 0.05 0.06 0.06 0.05 0.05 0.04 0.04 0.04 0.04 0.04 0.03 0.03 0.03 0.03 0.04 0.04 0.05 0.05 0.06 0.06 0.05 0.05 0.05 0.05 0.05 0.05 0.05 0.04 0.03 0.03 0.03 0.03 0.03 0.03
0.04 0.04 0.05 0.06 0.07 0.08 0.09 0.08 0.06 0.05 0.06 0.07 0.06 0.04 0.04 0.04 0.04 0.03 0.03 0.02 0.02 0.02 0.02 0.03 0.04 0.04 0.05 0.06 0.05 0.05 0.05 0.04 0.04 0.04 0.03 0.03 0.03 0.03 0.03 0.03 0.03 0.03 0.03
0.04 0.05 0.05 0.06 0.06 0.06 0.07 0.07 0.07 0.05 0.05 0.06 0.07 0.04 0.03 0.04 0.04 0.03 0.03 0.02 0.02 0.02 0.02 0.02 0.03 0.03 0.04 0.04 0.04 0.04 0.04 0.04 0.04 0.03 0.03 0.02 0.02 0.02 0.02 0.02 0.02 0.03 0.03
0.03 0.04 0.05 0.06 0.06 0.06 0.06 0.07 0.07 0.06 0.05 0.06 0.06 0.04 0.03 0.03 0.03 0.03 0.02 0.02 0.02 0.01 0.01 0.01 0.02 0.02 0.03 0.03 0.03 0.03 0.03 0.03 0.03 0.02 0.02 0.02 0.02 0.01 0.02 0.02 0.02 0.02 0.03
0.02 0.03 0.03 0.04 0.05 0.06 0.06 0.06 0.07 0.07 0.06 0.06 0.06 0.05 0.03 0.02 0.02 0.03 0.03 0.02 0.02 0.02 0.02 0.01 0.01 0.01 0.02 0.02 0.02 0.03 0.02 0.02 0.02 0.02 0.02 0.03 0.03 0.02 0.02 0.02 0.02 0.02 0.02
0.02 0.03 0.03 0.03 0.03 0.04 0.05 0.06 0.06 0.07 0.07 0.07 0.07 0.07 0.05 0.03 0.03 0.03 0.03 0.02 0.02 0.02 0.02 0.02 0.02 0.02 0.02 0.02 0.02 0.02 0.02 0.02 0.02 0.02 0.03 0.03 0.03 0.02 0.02 0.02 0.02 0.02 0.02
0.01 0.02 0.02 0.02 0.03 0.03 0.03 0.04 0.05 0.07 0.07 0.07 0.07 0.07 0.06 0.04 0.04 0.04 0.04 0.03 0.02 0.02 0.02 0.02 0.02 0.02 0.02 0.02 0.02 0.02 0.02 0.02 0.02 0.02 0.02 0.02 0.02 0.02 0.02 0.02 0.02 0.02 0.02
0.01 0.01 0.01 0.02 0.02 0.03 0.03 0.03 0.04 0.05 0.06 0.07 0.06 0.06 0.06 0.06 0.04 0.05 0.05 0.04 0.04 0.03 0.02 0.02 0.02 0.02 0.02 0.02 0.02 0.02 0.02 0.02 0.02 0.02 0.01 0.01 0.02 0.02 0.02 0.02 0.03 0.03 0.02
0.01 0.01 0.01 0.01 0.02 0.02 0.02 0.03 0.03 0.04 0.04 0.05 0.05 0.05 0.05 0.05 0.04 0.04 0.04 0.04 0.03 0.03 0.03 0.02 0.02 0.01 0.02 0.02 0.02 0.02 0.02 0.01 0.01 0.01 0.01 0.01 0.01 0.02 0.02 0.02 0.02 0.03 0.02
0.01 0.01 0.01 0.01 0.01 0.01 0.01 0.01 0.02 0.03 0.03 0.04 0.04 0.04 0.04 0.03 0.03 0.03 0.03 0.03 0.03 0.04 0.04 0.03 0.02 0.02 0.02 0.02 0.02 0.02 0.01 0.01 0.00 0.01 0.01 0.01 0.01 0.01 0.02 0.02 0.02 0.02 0.02
0.01 0.01 0.01 0.01 0.01 0.01 0.01 0.01 0.01 0.01 0.02 0.03 0.04 0.04 0.04 0.04 0.03 0.03 0.03 0.04 0.04 0.04 0.04 0.03 0.03 0.02 0.02 0.02 0.02 0.01 0.01 0.01 0.01 0.01 0.01 0.01 0.01 0.01 0.02 0.02 0.02 0.02 0.02
0.01 0.01 0.01 0.01 0.01 0.01 0.01 0.01 0.01 0.01 0.02 0.02 0.03 0.04 0.04 0.04 0.04 0.04 0.04 0.04 0.03 0.03 0.03 0.03 0.02 0.02 0.02 0.02 0.02 0.02 0.01 0.01 0.01 0.01 0.01 0.01 0.01 0.01 0.02 0.02 0.02 0.02 0.02
0.01 0.02 0.02 0.02 0.02 0.01 0.02 0.01 0.01 0.01 0.01 0.02 0.02 0.03 0.03 0.04 0.04 0.05 0.04 0.04 0.03 0.03 0.03 0.03 0.03 0.02 0.02 0.02 0.02 0.02 0.02 0.02 0.02 0.01 0.01 0.01 0.01 0.01 0.02 0.02 0.02 0.02 0.02
0.01 0.01 0.02 0.02 0.02 0.02 0.02 0.02 0.02 0.02 0.01 0.02 0.02 0.02 0.03 0.04 0.05 0.05 0.05 0.04 0.04 0.04 0.03 0.03 0.03 0.03 0.02 0.02 0.02 0.02 0.02 0.02 0.02 0.02 0.01 0.01 0.02 0.02 0.02 0.02 0.02 0.02 0.02
0.02 0.02 0.02 0.02 0.02 0.02 0.02 0.02 0.02 0.01 0.01 0.01 0.02 0.02 0.03 0.03 0.04 0.04 0.04 0.04 0.04 0.04 0.04 0.03 0.03 0.03 0.02 0.02 0.02 0.02 0.02 0.02 0.02 0.02 0.02 0.01 0.01 0.02 0.02 0.02 0.02 0.02 0.02
0.02 0.02 0.02 0.02 0.02 0.02 0.02 0.02 0.02 0.01 0.01 0.01 0.01 0.02 0.02 0.02 0.03 0.03 0.04 0.04 0.03 0.04 0.04 0.03 0.03 0.03 0.02 0.02 0.02 0.02 0.02 0.02 0.02 0.02 0.02 0.02 0.02 0.02 0.02 0.02 0.02 0.02 0.01
0.02 0.02 0.02 0.02 0.02 0.02 0.02 0.03 0.02 0.01 0.01 0.01 0.01 0.01 0.02 0.02 0.02 0.03 0.03 0.03 0.03 0.03 0.03 0.03 0.03 0.03 0.03 0.03 0.03 0.02 0.02 0.02 0.02 0.02 0.02 0.02 0.02 0.02 0.02 0.02 0.02 0.02 0.01
0.02 0.02 0.02 0.02 0.02 0.02 0.02 0.03 0.02 0.02 0.01 0.01 0.01 0.01 0.02 0.02 0.02 0.02 0.02 0.03 0.03 0.03 0.03 0.03 0.03 0.03 0.02 0.03 0.03 0.03 0.02 0.02 0.02 0.02 0.02 0.02 0.02 0.02 0.02 0.02 0.02 0.02 0.01
0.01 0.01 0.01 0.01 0.01 0.01 0.02 0.02 0.02 0.02 0.02 0.02 0.02 0.02 0.02 0.02 0.02 0.02 0.02 0.02 0.02 0.02 0.02 0.03 0.02 0.02 0.02 0.02 0.02 0.03 0.03 0.03 0.02 0.02 0.02 0.02 0.02 0.02 0.02 0.02 0.01 0.01 0.01
MSLP
1016.13 1014.98 1013.66 1012.22 1010.71 1009.24 1007.88 1006.74 1005.85 1005.24 1004.90 1004.77 1004.78 1004.86 1004.92 1004.95 1004.91 1004.83 1004.74 1004.72 1004.81 1005.07 1005.53 1006.20 1007.07 1008.10 1009.25 1010.46 1011.71 1012.95 1014.17 1015.35 1016.50 1017.61 1018.68 1019.70 1020.67 1021.56 1022.35 1023.03 1023.59 1024.04 1024.39
1015.64 1014.37 1012.95 1011.42 1009.84 1008.31 1006.92 1005.76 1004.88 1004.30 1004.00 1003.94 1004.03 1004.22 1004.41 1004.57 1004.66 1004.70 1004.73 1004.78 1004.91 1005.17 1005.60 1006.19 1006.96 1007.88 1008.90 1010.01 1011.17 1012.34 1013.52 1014.69 1015.86 1017.02 1018.16 1019.26 1020.32 1021.30 1022.18 1022.94 1023.58 1024.09 1024.49
1015.30 1013.92 1012.40 1010.78 1009.14 1007.57 1006.16 1004.98 1004.10 1003.53 1003.26 1003.24 1003.40 1003.67 1003.96 1004.24 1004.46 1004.63 1004.77 1004.91 1005.10 1005.39 1005.80 1006.34 1007.03 1007.85 1008.77 1009.77 1010.83 1011.92 1013.04 1014.19 1015.35 1016.52 1017.69 1018.83 1019.93 1020.96 1021.89 1022.71 1023.40 1023.97 1024.42
1015.11 1013.65 1012.04 1010.36 1008.67 1007.06 1005.63 1004.45 1003.56 1003.00 1002.73 1002.73 1002.93 1003.25 1003.62 1003.99 1004.32 1004.60 1004.85 1005.09 1005.35 1005.68 1006.10 1006.62 1007.25 1007.99 1008.81 1009.72 1010.68 1011.69 1012.75 1013.84 1014.96 1016.11 1017.27 1018.41 1019.52 1020.56 1021.51 1022.35 1023.08 1023.68 1024.18
1015.05 1013.52 1011.87 1010.15 1008.43 1006.82 1005.38 1004.18 1003.29 1002.72 1002.44 1002.44 1002.64 1002.98 1003.39 1003.82 1004.24 1004.62 1004.97 1005.30 1005.64 1006.02 1006.47 1006.98 1007.58 1008.25 1009.00 1009.82 1010.69 1011.62 1012.60 1013.63 1014.69 1015.79 1016.90 1018.01 1019.09 1020.10 1021.04 1021.89 1022.62 1023.26 1023.79
1015.07 1013.52 1011.85 1010.12 1008.42 1006.81 1005.38 1004.19 1003.29 1002.70 1002.40 1002.36 1002.54 1002.86 1003.29 1003.75 1004.22 1004.67 1005.10 1005.52 1005.94 1006.38 1006.86 1007.38 1007.96 1008.59 1009.28 1010.03 1010.83 1011.68 1012.58 1013.53 1014.53 1015.55 1016.60 1017.65 1018.67 1019.64 1020.54 1021.37 1022.10 1022.74 1023.30
1015.13 1013.59 1011.94 1010.26 1008.59 1007.02 1005.62 1004.45 1003.54 1002.92 1002.58 1002.49 1002.61 1002.90 1003.30 1003.76 1004.26 1004.76 1005.25 1005.74 1006.23 1006.73 1007.25 1007.79 1008.36 1008.97 1009.61 1010.30 1011.03 1011.81 1012.64 1013.52 1014.44 1015.40 1016.38 1017.35 1018.30 1019.22 1020.07 1020.86 1021.58 1022.23 1022.80
1015.20 1013.71 1012.13 1010.52 1008.93 1007.43 1006.08 1004.94 1004.03 1003.38 1002.98 1002.82 1002.87 1003.09 1003.44 1003.87 1004.37 1004.89 1005.42 1005.97 1006.51 1007.06 1007.61 1008.18 1008.75 1009.34 1009.95 1010.60 1011.28 1012.01 1012.78 1013.60 1014.45 1015.34 1016.25 1017.16 1018.05 1018.90 1019.71 1020.46 1021.15 1021.79 1022.37
1015.27 1013.87 1012.40 1010.90 1009.42 1008.02 1006.74 1005.63 1004.73 1004.04 1003.59 1003.35 1003.32 1003.45 1003.73 1004.11 1004.57 1005.09 1005.65 1006.22 1006.80 1007.39 1007.97 1008.54 1009.12 1009.70 1010.30 1010.91 1011.56 1012.24 1012.97 1013.74 1014.55 1015.39 1016.25 1017.10 1017.94 1018.74 1019.50 1020.22 1020.88 1021.50 1022.07
1015.37 1014.09 1012.75 1011.39 1010.04 1008.75 1007.56 1006.50 1005.62 1004.91 1004.40 1004.08 1003.96 1004.00 1004.19 1004.50 1004.92 1005.41 1005.96 1006.54 1007.14 1007.74 1008.34 1008.92 1009.50 1010.07 1010.64 1011.24 1011.86 1012.52 1013.22 1013.96 1014.74 1015.55 1016.37 1017.19 1017.99 1018.75 1019.48 1020.16 1020.79 1021.39 1021.94
1015.51 1014.37 1013.19 1011.98 1010.77 1009.61 1008.52 1007.53 1006.67 1005.95 1005.39 1005.01 1004.79 1004.75 1004.85 1005.09 1005.45 1005.90 1006.42 1006.99 1007.58 1008.17 1008.76 1009.34 1009.90 1010.46 1011.01 1011.59 1012.19 1012.83 1013.51 1014.24 1015.01 1015.80 1016.61 1017.41 1018.18 1018.93 1019.63 1020.28 1020.88 1021.45 1021.98
1015.73 1014.73 1013.70 1012.64 1011.59 1010.56 1009.58 1008.66 1007.84 1007.12 1006.54 1006.10 1005.82 1005.70 1005.72 1005.89 1006.18 1006.58 1007.06 1007.59 1008.15 1008.72 1009.28 1009.83 1010.37 1010.89 1011.42 1011.97 1012.55 1013.17 1013.84 1014.57 1015.33 1016.12 1016.92 1017.71 1018.48 1019.21 1019.89 1020.52 1021.10 1021.64 1022.14
1016.02 1015.15 1014.26 1013.36 1012.45 1011.55 1010.67 1009.84 1009.07 1008.38 1007.79 1007.33 1007.01 1006.83 1006.79 1006.90 1007.13 1007.46 1007.89 1008.36 1008.88 1009.40 1009.91 1010.41 1010.90 1011.38 1011.87 1012.39 1012.94 1013.54 1014.20 1014.91 1015.66 1016.45 1017.25 1018.04 1018.80 1019.53 1020.20 1020.81 1021.38 1021.89 1022.37
1016.36 1015.61 1014.84 1014.07 1013.29 1012.50 1011.73 1010.99 1010.29 1009.65 1009.09 1008.62 1008.29 1008.08 1008.00 1008.06 1008.23 1008.51 1008.87 1009.29 1009.74 1010.19 1010.64 1011.08 1011.50 1011.93 1012.37 1012.83 1013.34 1013.91 1014.54 1015.23 1015.98 1016.75 1017.54 1018.33 1019.08 1019.80 1020.46 1021.07 1021.62 1022.12 1022.57
1016.71 1016.05 1015.39 1014.72 1014.05 1013.37 1012.70 1012.05 1011.43 1010.85 1010.34 1009.91 1009.58 1009.37 1009.27 1009.30 1009.43 1009.66 1009.96 1010.30 1010.68 1011.06 1011.43 1011.79 1012.14 1012.50 1012.88 1013.28 1013.74 1014.27 1014.86 1015.52 1016.23 1016.98 1017.75 1018.52 1019.27 1019.97 1020.62 1021.22 1021.77 1022.26 1022.70
1017.02 1016.44 1015.85 1015.26 1014.68 1014.10 1013.53 1012.97 1012.43 1011.93 1011.48 1011.10 1010.81 1010.62 1010.52 1010.53 1010.63 1010.81 1011.05 1011.32 1011.62 1011.92 1012.21 1012.50 1012.78 1013.06 1013.37 1013.72 1014.12 1014.59 1015.13 1015.74 1016.41 1017.12 1017.86 1018.60 1019.32 1020.00 1020.64 1021.23 1021.77 1022.26 1022.70
1017.26 1016.72 1016.19 1015.68 1015.17 1014.67 1014.18 1013.71 1013.26 1012.84 1012.47 1012.16 1011.91 1011.75 1011.66 1011.66 1011.73 1011.87 1012.05 1012.26 1012.48 1012.71 1012.93 1013.14 1013.35 1013.57 1013.81 1014.10 1014.45 1014.86 1015.35 1015.90 1016.52 1017.18 1017.87 1018.57 1019.25 1019.91 1020.53 1021.11 1021.64 1022.13 1022.57
1017.37 1016.88 1016.41 1015.95 1015.51 1015.09 1014.68 1014.29 1013.92 1013.58 1013.28 1013.03 1012.83 1012.70 1012.63 1012.62 1012.67 1012.76 1012.89 1013.04 1013.20 1013.36 1013.51 1013.67 1013.82 1013.99 1014.19 1014.43 1014.73 1015.10 1015.53 1016.02 1016.58 1017.18 1017.81 1018.45 1019.09 1019.71 1020.30 1020.86 1021.38 1021.87 1022.32
1017.36 1016.92 1016.50 1016.10 1015.73 1015.37 1015.04 1014.72 1014.42 1014.15 1013.92 1013.72 1013.56 1013.45 1013.38 1013.37 1013.39 1013.45 1013.53 1013.63 1013.73 1013.84 1013.95 1014.06 1014.18 1014.32 1014.49 1014.70 1014.96 1015.29 1015.67 1016.11 1016.61 1017.14 1017.71 1018.29 1018.87 1019.45 1020.01 1020.54 1021.04 1021.52 1021.97
1017.22 1016.84 1016.49 1016.15 1015.84 1015.54 1015.27 1015.02 1014.78 1014.56 1014.37 1014.21 1014.08 1013.98 1013.91 1013.88 1013.88 1013.90 1013.94 1014.00 1014.06 1014.14 1014.21 1014.30 1014.41 1014.54 1014.70 1014.89 1015.14 1015.43 1015.78 1016.18 1016.61 1017.09 1017.59 1018.11 1018.63 1019.16 1019.67 1020.17 1020.65 1021.11 1021.55
1016.97 1016.66 1016.37 1016.10 1015.85 1015.61 1015.39 1015.19 1014.99 1014.82 1014.65 1014.51 1014.39 1014.29 1014.22 1014.17 1014.14 1014.13 1014.14 1014.17 1014.21 1014.26 1014.33 1014.41 1014.52 1014.65 1014.81 1015.01 1015.25 1015.53 1015.85 1016.21 1016.60 1017.02 1017.46 1017.91 1018.38 1018.85 1019.31 1019.78 1020.23 1020.67 1021.09
1016.61 1016.37 1016.15 1015.95 1015.76 1015.57 1015.39 1015.22 1015.06 1014.90 1014.76 1014.62 1014.50 1014.40 1014.32 1014.25 1014.20 1014.17 1014.16 1014.16 1014.19 1014.24 1014.30 1014.40 1014.51 1014.66 1014.84 1015.05 1015.29 1015.56 1015.86 1016.19 1016.54 1016.90 1017.29 1017.69 1018.10 1018.52 1018.94 1019.36 1019.78 1020.20 1020.59
1016.15 1015.98 1015.83 1015.68 1015.53 1015.38 1015.23 1015.09 1014.94 1014.79 1014.66 1014.53 1014.41 1014.30 1014.21 1014.14 1014.07 1014.03 1014.01 1014.01 1014.03 1014.08 1014.16 1014.27 1014.40 1014.56 1014.76 1014.98 1015.22 1015.49 1015.78 1016.08 1016.39 1016.72 1017.06 1017.41 1017.78 1018.15 1018.53 1018.92 1019.31 1019.70 1020.08
1015.60 1015.49 1015.38 1015.26 1015.14 1015.02 1014.88 1014.75 1014.61 1014.47 1014.34 1014.22 1014.10 1014.01 1013.92 1013.84 1013.79 1013.75 1013.73 1013.74 1013.77 1013.83 1013.91 1014.03 1014.18 1014.35 1014.56 1014.78 1015.03 1015.29 1015.56 1015.84 1016.13 1016.43 1016.74 1017.06 1017.38 1017.73 1018.08 1018.44 1018.81 1019.18 1019.54
1014.98 1014.88 1014.78 1014.68 1014.57 1014.45 1014.32 1014.19 1014.06 1013.93 1013.81 1013.70 1013.60 1013.52 1013.45 1013.40 1013.36 1013.34 1013.34 1013.35 1013.40 1013.47 1013.56 1013.69 1013.84 1014.02 1014.23 1014.45 1014.69 1014.94 1015.20 1015.46 1015.74 1016.01 1016.30 1016.60 1016.91 1017.24 1017.58 1017.93 1018.28 1018.65 1019.00
1014.27 1014.17 1014.06 1013.94 1013.82 1013.69 1013.55 1013.42 1013.29 1013.18 1013.07 1012.99 1012.92 1012.87 1012.83 1012.81 1012.80 1012.81 1012.83 1012.87 1012.92 1013.00 1013.11 1013.23 1013.39 1013.56 1013.76 1013.97 1014.20 1014.44 1014.69 1014.94 1015.20 1015.47 1015.75 1016.05 1016.35 1016.68 1017.02 1017.37 1017.74 1018.10 1018.45
Thickness
5476 5479 5482 5485 5487 5489 5492 5494 5496 5499 5500 5502 5503 5503 5504 5505 5506 5507 5507 5508 5507 5507 5507 5507 5506 5505 5505 5504 5503 5504 5504 5505 5506 5505 5503 5502 5501 5500 5499 5498 5497 5496 5496
5467 5470 5473 5476 5479 5481 5483 5485 5487 5489 5491 5493 5494 5494 5495 5496 5496 5498 5498 5497 5498 5498 5498 5497 5497 5496 5496 5496 5495 5494 5494 5494 5494 5494 5493 5492 5491 5490 5489 5488 5487 5486 5485
5458 5461 5464 5468 5470 5472 5474 5475 5478 5480 5481 5483 5484 5485 5485 5486 5486 5487 5488 5488 5488 5489 5489 5488 5488 5488 5487 5486 5486 5485 5484 5484 5484 5483 5483 5482 5481 5480 5479 5478 5477 5476 5475
5450 5452 5455 5458 5461 5463 5465 5467 5468 5470 5471 5473 5474 5475 5475 5476 5476 5476 5477 5478 5478 5478 5478 5479 5479 5479 5478 5478 5477 5476 5475 5475 5475 5474 5473 5473 5472 5470 5468 5469 5468 5467 5466
5441 5444 5446 5449 5452 5454 5456 5457 5459 5460 5461 5462 5464 5465 5465 5466 5466 5467 5467 5468 5468 5468 5468 5469 5469 5469 5468 5468 5468 5468 5467 5466 5465 5464 5464 5463 5463 5462 5460 5459 5459 5458 5458
5432 5435 5437 5439 5442 5444 5446 5447 5449 5450 5451 5452 5453 5455 5456 5457 5457 5457 5456 5456 5456 5457 5458 5459 5459 5459 5459 5458 5458 5458 5458 5457 5456 5455 5455 5455 5454 5453 5451 5450 5449 5449 5450
5423 5425 5427 5430 5432 5434 5436 5437 5439 5440 5440 5442 5443 5445 5446 5447 5447 5446 5445 5445 5446 5447 5447 5448 5449 5449 5448 5449 5449 5448 5448 5447 5446 5446 5446 5446 5445 5445 5443 5441 5440 5439 5439
5415 5416 5418 5419 5422 5425 5426 5428 5429 5430 5431 5432 5434 5435 5437 5438 5437 5436 5435 5435 5436 5436 5436 5437 5438 5438 5438 5438 5439 5439 5439 5438 5437 5437 5436 5436 5435 5434 5433 5432 5431 5430 5429
5406 5407 5408 5409 5412 5414 5416 5418 5419 5420 5421 5423 5424 5426 5427 5428 5427 5426 5425 5426 5426 5426 5427 5427 5427 5428 5428 5428 5429 5430 5430 5429 5428 5427 5426 5426 5425 5424 5423 5422 5421 5421 5422
5397 5398 5399 5400 5402 5404 5405 5407 5408 5410 5411 5412 5414 5416 5418 5418 5418 5417 5416 5417 5417 5417 5417 5417 5417 5418 5418 5418 5419 5420 5421 5421 5420 5419 5417 5416 5416 5415 5414 5413 5413 5413 5413
5389 5389 5390 5391 5392 5394 5395 5397 5399 5400 5401 5404 5406 5407 5408 5409 5409 5409 5408 5408 5408 5409 5409 5409 5409 5408 5409 5409 5409 5410 5411 5410 5410 5409 5408 5408 5407 5406 5406 5405 5404 5404 5404
5380 5380 5380 5381 5382 5384 5385 5387 5389 5390 5392 5394 5396 5397 5398 5399 5399 5399 5399 5399 5400 5400 5400 5401 5400 5399 5399 5399 5399 5400 5399 5399 5399 5399 5399 5399 5399 5398 5397 5396 5395 5394 5394
5370 5371 5371 5371 5373 5374 5375 5377 5379 5380 5382 5384 5386 5388 5390 5390 5390 5390 5390 5390 5390 5391 5392 5392 5391 5389 5389 5389 5390 5390 5389 5389 5389 5390 5390 5390 5389 5388 5388 5387 5386 5385 5385
5361 5361 5361 5361 5363 5364 5365 5367 5368 5370 5372 5374 5376 5378 5380 5381 5382 5382 5382 5382 5381 5382 5382 5382 5381 5380 5380 5380 5380 5380 5380 5380 5380 5380 5381 5380 5379 5379 5379 5378 5377 5377 5377
5351 5351 5351 5351 5353 5355 5356 5357 5358 5361 5362 5365 5367 5369 5371 5373 5374 5374 5374 5374 5374 5374 5373 5373 5373 5372 5372 5372 5371 5371 5371 5371 5370 5371 5371 5371 5370 5370 5369 5369 5368 5367 5367
5342 5341 5341 5342 5343 5344 5346 5348 5349 5350 5353 5355 5357 5359 5361 5363 5364 5365 5366 5366 5365 5365 5365 5365 5365 5365 5364 5364 5363 5362 5362 5362 5362 5362 5362 5362 5361 5361 5360 5360 5359 5359 5359
5332 5332 5332 5332 5333 5334 5336 5338 5341 5342 5343 5345 5347 5350 5351 5353 5354 5356 5356 5356 5356 5356 5356 5357 5357 5356 5356 5355 5355 5354 5354 5353 5353 5353 5353 5353 5353 5352 5351 5351 5351 5351 5351
5323 5323 5323 5324 5324 5326 5327 5329 5331 5333 5335 5337 5338 5340 5342 5343 5345 5346 5346 5346 5347 5347 5348 5348 5348 5348 5347 5347 5346 5346 5346 5345 5345 5345 5345 5345 5345 5344 5343 5343 5343 5343 5343
5314 5315 5315 5315 5316 5317 5319 5320 5322 5324 5326 5327 5329 5331 5332 5333 5335 5336 5337 5338 5339 5339 5340 5340 5340 5339 5339 5339 5338 5338 5338 5337 5338 5338 5338 5338 5337 5337 5337 5336 5335 5335 5335
5307 5306 5307 5307 5308 5309 5310 5312 5314 5315 5317 5319 5321 5322 5323 5325 5327 5328 5329 5330 5331 5331 5332 5332 5332 5331 5331 5331 5331 5331 5330 5330 5331 5331 5331 5331 5330 5330 5330 5329 5329 5328 5329
5299 5299 5298 5299 5300 5301 5302 5304 5306 5307 5309 5311 5313 5314 5316 5317 5319 5320 5321 5322 5323 5323 5324 5323 5323 5323 5323 5324 5324 5323 5323 5323 5324 5324 5324 5324 5323 5323 5323 5323 5323 5322 5322
5291 5291 5291 5292 5292 5293 5295 5297 5299 5301 5303 5304 5305 5307 5308 5309 5311 5312 5313 5314 5315 5316 5316 5316 5316 5316 5316 5316 5317 5317 5317 5317 5318 5318 5318 5317 5317 5316 5316 5316 5316 5316 5316
5283 5283 5284 5285 5285 5287 5288 5290 5292 5294 5296 5297 5299 5300 5301 5303 5304 5305 5306 5307 5308 5308 5308 5309 5309 5309 5309 5310 5311 5311 5311 5311 5311 5311 5311 5310 5310 5310 5310 5310 5309 5309 5310
5276 5276 5277 5277 5278 5280 5281 5283 5285 5286 5288 5290 5291 5293 5294 5296 5297 5297 5299 5300 5300 5301 5301 5302 5303 5303 5304 5304 5305 5305 5305 5305 5304 5304 5304 5303 5303 5303 5303 5303 5303 5303 5303
5270 5270 5271 5271 5271 5273 5274 5276 5277 5279 5281 5283 5284 5286 5287 5288 5289 5290 5292 5293 5294 5295 5295 5295 5296 5297 5298 5298 5299 5299 5299 5298 5298 5297 5297 5296 5296 5296 5296 5295 5296 5296 5296
5265 5265 5265 5265 5266 5267 5268 5269 5271 5272 5274 5276 5277 5279 5280 5281 5282 5284 5285 5286 5287 5288 5289 5289 5290 5291 5291 5292 5293 5293 5293 5293 5292 5291 5290 5290 5290 5290 5289 5289 5289 5289 5289